This is the latest recevied weather packets stored in our database for station/object KD8ZLZ. If no packets are shown the sender has not sent any weather packets the latest 10 day(s).
| Time | Temp. | Humidity | Pressure | Rain* | Wind** | Luminosity | Snow |
|---|---|---|---|---|---|---|---|
| 1777192527 | 7.78° C | 87% | 1019.1 hPa | 0 mm | - | - | - |
| 1777190727 | 8.89° C | 83% | 1018.9 hPa | 0 mm | - | - | - |
| 1777190127 | 8.89° C | 83% | 1019.2 hPa | 0 mm | - | - | - |
| 1777187427 | 8.89° C | 83% | 1019.2 hPa | 0 mm | - | - | - |
| 1777185328 | 8.89° C | 82% | 1019.2 hPa | 0 mm | - | - | - |
| 1777183528 | 9.44° C | 82% | 1019.6 hPa | 0 mm | - | - | - |
| 1777182927 | 9.44° C | 81% | 1019.6 hPa | 0 mm | - | - | - |
| 1777181427 | 9.44° C | 80% | 1019.6 hPa | 0 mm | - | - | - |
| 1777180548 | 9.44° C | 80% | 1019.3 hPa | 0 mm | - | - | - |
| 1777179927 | 9.44° C | 79% | 1019.3 hPa | 0 mm | - | - | - |
| 1777176348 | 9.44° C | 80% | 1019.6 hPa | 0 mm | - | - | - |
| 1777175748 | 9.44° C | 80% | 1019.6 hPa | 0 mm | - | - | - |
| 1777174828 | 9.44° C | 79% | 1019.3 hPa | 0 mm | - | - | - |
| 1777174527 | 9.44° C | 80% | 1019.3 hPa | 0 mm | - | - | - |
| 1777173927 | 9.44° C | 80% | 1019.3 hPa | 0 mm | - | - | - |
| 1777171527 | 10° C | 78% | 1019.3 hPa | 0 mm | - | - | - |
| 1777167628 | 10.56° C | 78% | 1018.4 hPa | 0 mm | - | - | - |
| 1777167028 | 10.56° C | 78% | 1018.4 hPa | 0 mm | - | - | - |
| 1777163448 | 11.11° C | 75% | 1017.7 hPa | 0 mm | - | - | - |
| 1777158027 | 11.67° C | 75% | 1016.7 hPa | 0 mm | - | - | - |
| 1777157728 | 11.67° C | 75% | 1016.7 hPa | 0 mm | - | - | - |
| 1777154747 | 12.22° C | 74% | 1016.1 hPa | 0 mm | - | - | - |
| 1777154427 | 12.22° C | 74% | 1016.1 hPa | 0 mm | - | - | - |
| 1777154127 | 12.22° C | 75% | 1016.1 hPa | 0 mm | - | - | - |
| 1777153827 | 12.22° C | 74% | 1016.1 hPa | 0 mm | - | - | - |
* Rain latest hour (hover to see other rain measurements)
** Current wind speed in m/s (hover to see current wind gust speed)